www.pogodaiklimat.ru

Погода и климат >> Архив погоды >> Россия >> Краснодарский край >> Староминская


ПОГОДА в Староминская

  • Прогноз погоды в Староминская
  • Монитор погоды в Староминская
  • Климат города

АРХИВ ПОГОДЫ в Староминская

Время (UTC), дата Ветер
(напр.,м/с)
 
Видим.   Явления Облачность Т
(С)
Тd
(С)
f
(%)
Тe
(С)
Тes
(С)
Комфортность P
(гПа)
Po
(гПа)
Тmin
(С)
Tmax
(С)
R
(мм)
R24
(мм)
S
(см)
03 16.09 ЮВ 3 4000 м дымка 10/10 600 м
[Cb calv]
+19.0 +15.9 82 +21 +21 комфорт 1009.3 1004.3 +17.7 2
06 16.09 Ю 4 10 км 9/8 600 м
[Sc Ci fib]
+20.9 +17.1 79 +25 +25 комфорт 1009.0 1004.0
09 16.09 Ю 5-10
{10}
10 км 9/9 600 м
[Sc]
+23.3 +16.9 67 +28 +29 душно 1007.8 1002.8
12 16.09 СВ 1
{11}
4000 м дымка 10/10 600 м
[Cb calv]
+20.0 +17.1 83 +24 +24 комфорт 1006.0 1001.0
15 16.09 СЗ 3
{12}
4000 м в посл. час ливневой дождь 10/10 600 м
[Cb calv]
+19.8 +17.9 89 +23 +23 комфорт 1010.1 1005.1 +23.7 10
18 16.09 З 5 4000 м дымка {ливн. осадки} 8/8 600 м
[Sc]
+19.9 +16.6 81 +22 +22 комфорт 1012.7 1007.7
21 16.09 З 4 4000 м дымка 8/8 600 м
[Sc]
+18.9 +16.4 85 +20 +20 1014.5 1009.4
00 17.09 З 1 4000 м дымка ясно +15.2 +12.4 83 +16 +16 1015.6 1010.5
03 17.09 З 2 4000 м дымка ясно +14.4 +11.7 84 +14 +14 1017.2 1012.1 +14.4 1
06 17.09 СЗ 5 10 км ясно +16.7 +11.7 72 +16 +18 1018.6 1013.5 +14.2
09 17.09 СЗ 5-10
{11}
10 км 4/4 600 м
[Cu med, cong]
+19.0 +6.7 45 +19 +23 1019.0 1013.9
12 17.09 СЗ 6
{11}
10 км 6/6 600 м
[Cu med, cong]
+20.7 +5.9 38 +21 +22 комфорт 1018.8 1013.8
15 17.09 СЗ 3
{11}
10 км 3/3 600 м
[Sc]
+20.2 +3.7 34 +21 +21 комфорт 1019.1 1014.1 +21.2
18 17.09 СЗ 2 10 км ясно +15.2 +4.1 47 +15 +15 1020.9 1015.7
21 17.09 З 2 10 км ясно +12.2 +4.2 58 +11 +11 1021.9 1016.7
00 18.09 З 2 10 км ясно +11.1 +4.8 65 +10 +10 1022.1 1016.8
03 18.09 З 2 4000 м дымка ясно +9.8 +6.3 79 +8 +8 1022.8 1017.6 +7.8
06 18.09 СЗ 2 10 км ясно +16.7 +7.9 56 +17 +21 1023.8 1018.6
09 18.09 СЗ 3 10 км 1/1 1000 м
[Cu hum]
+20.7 +3.7 33 +22 +29 комфорт 1023.4 1018.3
12 18.09 З 4 10 км ясно +21.4 +3.1 30 +21 +26 комфорт 1022.3 1017.3
15 18.09 З 3 10 км 6/0
[Ci fib]
+20.4 +3.0 32 +21 +21 комфорт 1021.7 1016.6 +21.8
18 18.09 ЮЗ 2 10 км 8/0
[Ci fib]
+16.9 +5.4 47 +17 +17 1022.2 1017.0
21 18.09 ЮЗ 3 10 км ясно +15.5 +7.9 61 +15 +15 1022.2 1017.0
00 19.09 З 1 10 км ясно +13.7 +9.2 74 +14 +14 1022.1 1016.9
03 19.09 З 2 10 км 9/0
[Ci fib]
+13.4 +9.8 79 +13 +13 1022.0 1016.8 +11.2
06 19.09 З 3 10 км ясно +19.7 +11.3 58 +21 +25 комфорт 1022.7 1017.6
09 19.09 З 5 10 км ясно +24.1 +6.9 33 +24 +30 комфорт 1022.2 1017.2
12 19.09 З 4 10 км ясно +25.0 +8.0 34 +25 +29 комфорт 1021.5 1016.5
15 19.09 З 4 10 км ясно +23.5 +7.0 35 +24 +24 комфорт 1021.3 1016.3 +25.3
18 19.09 З 3 10 км ясно +21.9 +15.8 68 +26 +26 душно 1021.9 1016.9
21 19.09 З 1 10 км ясно +15.0 +11.0 77 +16 +16 1021.9 1016.7
00 20.09 штиль 0 4000 м дымка ясно +11.4 +9.7 89 +11 +11 1021.8 1016.6
03 20.09 штиль 0 4000 м дымка ясно +10.1 +8.9 92 +9 +9 1022.1 1016.8 +10.0
06 20.09 штиль 0 10 км ясно +21.3 +13.9 63 +24 +29 комфорт 1022.3 1017.2 +10.0
09 20.09 В 2 10 км ясно +25.5 +7.4 32 +26 +35 жарко 1021.4 1016.5
12 20.09 С 2 10 км ясно +27.8 +6.7 26 +27 +33 жарко 1019.8 1014.8
15 20.09 СЗ 2 10 км 3/0
[Ci fib]
+25.8 +6.9 30 +26 +26 жарко 1019.0 1014.0 +27.9
18 20.09 СЗ 2 10 км ясно +19.2 +8.5 50 +21 +21 комфорт 1019.5 1014.4
21 20.09 ЮЗ 1 4000 м дымка ясно +14.4 +11.9 85 +15 +15 1018.8 1013.7
00 21.09 Ю 1 4000 м дымка ясно +12.3 +10.5 89 +12 +12 1018.6 1013.4
03 21.09 штиль 0 4000 м дымка ясно +11.2 +9.4 89 +11 +11 1018.7 1013.5 +11.2
06 21.09 СВ 1 10 км ясно +20.6 +12.6 60 +24 +28 комфорт 1019.3 1014.2 +11.1
09 21.09 СВ 2 10 км 3/0
[Ci fib]
+28.3 +7.9 28 +28 +37 жарко 1018.9 1014.0
12 21.09 В 2 10 км 3/0
[Ci fib]
+29.8 +5.6 22 +28 +34 жарко 1018.0 1013.1
15 21.09 СВ 1 10 км 3/0
[Ci fib]
+27.4 +7.1 28 +27 +27 жарко 1017.7 1012.8 +30.1
18 21.09 СВ 2 10 км ясно +20.3 +10.0 52 +22 +22 комфорт 1018.7 1013.6
21 21.09 СВ 1 10 км ясно +17.1 +9.1 59 +18 +18 1018.8 1013.7
00 22.09 СВ 1 10 км ясно +17.1 +8.4 57 +18 +18 1018.9 1013.8
03 22.09 СВ 1 10 км ясно +15.4 +8.6 64 +16 +16 1019.1 1013.9 +15.0
06 22.09 В 3 10 км ясно +19.8 +9.6 52 +21 +24 комфорт 1019.2 1014.1 +14.3
09 22.09 В 3 10 км ясно +27.9 +9.4 31 +28 +36 жарко 1018.2 1013.3
12 22.09 В 2 10 км ясно +29.6 +6.1 23 +28 +34 жарко 1016.8 1011.9
15 22.09 В 1 10 км ясно +26.8 +8.1 31 +27 +27 жарко 1016.1 1011.2 +29.8
18 22.09 В 1 10 км ясно +21.6 +8.5 43 +23 +23 комфорт 1016.6 1011.6
21 22.09 штиль 0 10 км ясно +17.1 +8.9 58 +17 +17 1016.2 1011.1

 

Местоположение метеостанции Староминская (Краснодарский край, Россия): широта 46.53 долгота 39.02 высота над уровнем моря 43 м.

В архиве по умолчанию представлена погода в Староминская за последнюю неделю. Архивные данные за месяц целиком и за предыдущие месяцы, начиная с января 2011 года, Вы можете получить, выбрав интересующий диапазон дат из раскрывающегося списка и нажав кнопку "Ввод!".


*Определитесь, кто Вы:
робот инопланетянин человек

Внимание! Время в таблицах - всемирное. Для получения местного времени необходимо прибавить поправку, которая в Староминская равна 3 ч.

Смотрите также архив погоды в соседних городах и на ближайших метеорологических станциях:

Погода в Кущевской (Краснодарский край, Россия) (46 км)
Погода в Маргаритово (Ростовская область, Россия) (46 км)
Погода в Каневской (Краснодарский край, Россия) (51 км)
Погода в Ейске (Краснодарский край, Россия) (65 км)
Погода в Таганроге (Ростовская область, Россия) (75 км)
Погода в Сосыке (Краснодарский край, Россия) (76 км)
Погода в Приморско-Ахтарске (Краснодарский край, Россия) (87 км)
Погода в Должанке (Краснодарский край, Россия) (100 км)
Погода в Тимашевске (Краснодарский край, Россия) (100 км)
Погода в Ростове-на-Дону (Ростовская область, Россия) (102 км)

Пояснения к столбцам:

Ветер - указаны скорость ветра в м/с - средняя за 10 мин, порывы в срок и между сроками (в фигурных скобках) и направление, откуда дует ветер: С - северный, СВ - северо-восточный, В - восточный, ЮВ - юго-восточный, Ю - южный, ЮЗ - юго-западный, З - западный, СЗ - северо-западный.
Видимость - горизонтальная дальность видимости в метрах или километрах. При видимости от 1 до 10 км при отсутствии осадков обычно наблюдается дымка, при ухудшении видимости до 1 км и менее - туман. В сухую погоду видимость может ухудшаться дымом, пылью или мглою.
Явления - указаны атмосферные явления, наблюдавшиеся в срок или в последний час перед сроком; фигурными скобками обозначены явления, наблюдавшиеся между сроками (за 1-3 часа до срока); квадратными скобками обозначены град или гололедные отложения с указанием их диаметра в мм.
Облачность - указаны через наклонную черту общая и нижняя облачность в баллах и высота нижней границы облаков в метрах; квадратными скобками обозначены формы облаков: Ci - перистые, Cs - перисто-слоистые, Cc - перисто-кучевые, Ac - высококучевые, As - высокослоистые, Sc - слоисто-кучевые, Ns - слоисто-дождевые, Cu - кучевые, Cb - кучево-дождевые. Подробнее классификацию облаков см. в Атласе облаков (PDF).
T - Температура воздуха - температура, измеренная на высоте 2 м над землей.
Td - Температура точки росы - температура, при понижении до которой содержащийся в воздухе водяной пар достигнет насыщения.
f - Относительная влажность воздуха - влажноcть воздуха, измеренная на высоте 2 м над землей.
Te - Эффективная температура - температура, которую ощущает одетый по сезону человек в тени. Характеристика душности погоды. При расчете учитывается влияние влажности воздуха и скорости ветра на теплоощущения человека.
Tes - Эффективная температура на солнце - температура, которую ощущает человек, с поправкой на солнечный нагрев. Характеристика знойности погоды. Зависит от высоты солнца над горизонтом, облачности и скорости ветра. Ночью, в пасмурную погоду, а также при ветре 12 м/с и более поправка равна нулю.
P - Атмосферное давление - приведенное к уровню моря атмосферное давление.
Po - Атмосферное давление - измеренное на уровне метеостанции атмосферное давление.
Tmin - Минимальная температура - минимум температуры воздуха на высоте 2 м над землей.
Tmax - Максимальная температура - максимум температуры воздуха на высоте 2 м над землей.
R - Количество осадков - Количество выпавших осадков за период времени, мм. При наведении курсора мыши на число - период времени, за который выпало указанное количество осадков.
R24 - Количество осадков - Количество выпавших осадков за 24 часа, мм.
S - Снежный покров - Высота снежного покрова, см. При наведении курсора мыши на число - состояние снежного покрова и степень покрытия местности в баллах.